[[{"header":{"parameterUnit":"m.s-1","parameterCategory":1,"la1":30.2991,"la2":30.254,"lo1":-89.0895,"lo2":-89.0444,"dy":0.0017,"dx":0.0017,"nx":28,"ny":28,"refTime":"2025-07-14T09:00:00:Z","depth":0,"parameterNumber":2,"parameterNumberName":"U-component_of_WINDS"},"data":[0,0,0,0,0,0,0,0,0,0,0,0,0,0,0,0,0,0,0,0,0,0,0,0,0,0,0,0,0,0,0,0,0,0,0,0,0,0,0,0,0,0,0,0,0,0,0,0,0,0,0,0,0,0,0,0,0,0,1.839,1.839,0,1.8395,1.8395,1.8395,1.8305,1.8302,1.83,1.8297,1.8307,1.831,1.8312,0,0,0,0,0,0,0,0,0,0,0,0,0,1.8307,1.8309,1.839,1.839,1.839,1.8395,1.8395,1.8395,1.8305,1.8302,1.8299,1.8296,1.8306,1.8309,1.8312,0,0,0,0,0,0,0,0,0,0,0,0,0,1.8331,1.831,1.839,1.8345,1.8341,1.8395,1.8395,1.8395,1.8306,1.8302,1.8298,1.8295,1.8305,1.8309,1.8313,1.841,0,0,1.8324,1.8326,0,0,0,0,0,0,0,0,1.833,1.8334,1.8352,1.8348,1.8344,1.8345,1.8369,1.84,1.8307,1.8319,1.8297,1.8293,1.8323,1.8325,1.8334,1.841,1.8411,1.8325,1.8327,1.8329,1.833,0,0,0,0,0,0,0,1.8328,1.8333,1.8392,1.8352,1.8348,1.8327,1.8326,1.8375,1.8342,1.8318,1.8311,1.8313,1.832,1.8331,1.8334,1.8411,1.8325,1.8328,1.833,1.8332,1.8569,1.8573,0,0,0,0,0,0,1.8332,1.8332,1.8391,1.8392,1.8328,1.8331,1.8331,1.8349,1.8341,1.8336,1.8316,1.8309,1.8326,1.833,1.8334,1.8447,1.8329,1.8332,1.8334,1.8565,1.857,1.8574,0,0,0,0,0,0,1.833,1.8338,1.8391,1.836,1.8366,1.8337,1.8358,1.8351,1.8361,1.834,1.8334,1.8333,1.8323,1.8329,1.8392,1.8446,1.8334,1.8337,1.856,1.8566,1.8572,1.8675,0,0,0,0,0,0,1.8328,1.8338,1.8373,1.8362,1.8368,1.8447,1.8361,1.8353,1.8367,1.8358,1.8353,1.8349,1.8321,1.8386,1.8396,1.8449,1.834,1.8555,1.8563,1.857,1.8666,1.8683,1.8698,0,0,0,0,0,1.8326,1.8402,1.8375,1.8383,1.841,1.8451,1.8454,1.8418,1.8372,1.8408,1.8395,1.8349,1.844,1.8394,1.8403,1.8459,1.8551,1.8561,1.8569,1.8659,1.868,1.8698,0,0,0,0,0,0,1.8421,1.84,1.8369,1.8444,1.845,1.8435,1.8479,1.8442,1.8461,1.8452,1.8408,1.8408,1.8479,1.8476,1.8425,1.8554,1.8488,1.8499,1.8553,1.8572,1.8588,1.8586,1.8344,0,0,0,0,0,1.8451,1.8483,1.8464,1.8532,1.8536,1.8508,1.8524,1.8496,1.8501,1.8503,1.8494,1.8502,1.8532,1.8552,1.8579,1.8667,1.8665,1.871,1.8726,1.8739,1.8749,1.8796,1.8816,1.8604,1.8604,1.8603,0,0,1.8512,1.8505,1.8528,1.8551,1.8552,1.8589,1.851,1.8552,1.8579,1.851,1.8568,1.8563,1.8568,1.8645,1.8678,1.8644,1.8808,1.8751,1.8761,1.8764,1.8808,1.8828,1.8846,1.861,1.8609,1.8608,0,0,1.8642,1.864,1.8696,1.87,1.8702,1.8683,1.8697,1.8689,1.8682,1.874,1.8689,1.8723,1.8775,1.8781,1.8791,1.8928,1.8888,1.8939,1.9021,1.9068,1.9085,1.9099,1.9148,1.9166,1.8949,1.8949,1.8949,0,1.8718,1.8769,1.8731,1.8776,1.8788,1.8728,1.8786,1.8791,1.8803,1.8814,1.8776,1.8841,1.8841,1.8918,1.8951,1.8962,1.8978,1.8937,1.9085,1.9099,1.9113,1.9158,1.9177,1.8955,1.8955,1.8954,1.8953,0,1.8863,1.89,1.8946,1.8958,1.8976,1.9028,1.8999,1.9022,1.8994,1.898,1.9041,1.9039,1.9064,1.9081,1.9055,1.9156,1.9135,1.9092,1.9024,1.9139,1.9182,1.9199,1.8964,1.8962,1.896,1.8958,0,0,1.9049,1.9042,1.9059,1.9064,1.9065,1.9093,1.9144,1.9168,1.9189,1.9201,1.9242,1.9289,1.925,1.9262,1.9236,1.9278,1.9387,1.923,1.9229,1.9258,1.9498,1.9529,1.955,1.9361,1.9364,1.9367,1.9497,0,1.9175,1.9258,1.9227,1.9313,1.9348,1.9293,1.9337,1.9343,1.9332,1.9361,1.935,1.9384,1.933,1.9337,1.9376,1.9365,1.9434,1.9356,1.94,1.9402,1.9398,1.9572,1.9604,1.9727,1.9514,1.9517,1.9519,0,1.9331,1.9349,1.9439,1.9435,1.9448,1.9488,1.9509,1.9537,1.9544,1.9534,1.9549,1.9515,1.9566,1.9501,1.9571,1.9519,1.9536,1.9534,1.9538,1.9539,1.9466,1.9577,1.9766,1.9784,1.9545,1.9542,1.9541,0,1.9457,1.9504,1.9564,1.9571,1.9568,1.9597,1.9598,1.9601,1.9618,1.9638,1.9648,1.9674,1.9688,1.971,1.9684,1.9639,1.976,1.9692,1.9753,1.9754,1.9778,1.9777,1.9971,1.9793,1.9793,1.9792,1.9792,0,1.96,1.9657,1.962,1.9657,1.972,1.9685,1.9749,1.9744,1.9748,1.9784,1.974,1.9775,1.974,1.9773,1.9755,1.9816,1.9824,1.9817,1.9811,1.982,1.9821,1.9829,1.9819,1.9797,1.9796,1.9795,1.9794,0,1.9749,1.9727,1.9789,1.9782,1.9782,1.9829,1.9823,1.9858,1.9846,1.9892,1.9901,1.9882,1.9918,1.9896,1.9934,1.9922,2.0002,1.9985,1.9999,1.9993,2.0055,2.0049,2.026,2.0286,2.0093,2.0095,2.0097,0,1.984,1.9882,1.9881,1.9901,1.9905,1.9939,1.9956,1.9925,1.9945,1.9959,1.9992,2.0025,2.0049,2.011,2.0101,2.013,2.0113,2.0185,2.0117,2.0125,2.0112,2.0109,2.0113,2.0198,2.02,2.0202,2.0203,0,2.0003,1.9991,2.0017,2.0041,2.0064,2.0081,2.0095,2.0115,2.0084,2.011,2.0146,2.0165,2.0204,2.0237,2.0263,2.0265,2.023,2.0226,2.0241,2.0249,2.0255,2.0251,2.0034,2.022,2.0218,2.0217,2.0216,2.0216,2.0125,2.0161,2.0165,2.0197,2.0205,2.022,2.0252,2.0244,2.0274,2.0302,2.0283,2.0326,2.0335,2.0365,2.0373,2.0408,2.0379,2.0401,2.0407,2.0412,2.042,2.0251,2.0413,2.0412,2.0412,2.0411,2.0411,0,2.0285,2.0286,2.0316,2.0337,2.0363,2.0328,2.0342,2.0366,2.0405,2.0416,2.0441,2.0484,2.0517,2.0512,2.0542,2.0571,2.0556,2.058,2.0576,2.0578,2.0445,2.0428,2.0592,2.0592,2.0592,2.0592,2.0592,2.0592,2.037,2.0429,2.0419,2.0482,2.0483,2.0524,2.0536,2.055,2.0559,2.0608,2.0635,2.0632,2.0637,2.0668,2.0697,2.0695,2.0708,2.0738,2.073,2.0605,2.0587,2.057,2.0553,2.0741,2.0741,2.0859,2.086,2.0861]},{"header":{"parameterUnit":"m.s-1","parameterCategory":1,"la1":30.2991,"la2":30.254,"lo1":-89.0895,"lo2":-89.0444,"dy":0.0017,"dx":0.0017,"nx":28,"ny":28,"refTime":"2025-07-14T09:00:00:Z","depth":0,"parameterNumber":3,"parameterNumberName":"V-component_of_WINDS"},"data":[0,0,0,0,0,0,0,0,0,0,0,0,0,0,0,0,0,0,0,0,0,0,0,0,0,0,0,0,0,0,0,0,0,0,0,0,0,0,0,0,0,0,0,0,0,0,0,0,0,0,0,0,0,0,0,0,0,0,2.0174,2.0173,0,2.0029,2.0027,2.0026,1.9925,1.9925,1.9924,1.9923,1.9766,1.9763,1.9759,0,0,0,0,0,0,0,0,0,0,0,0,0,2.0354,2.0352,2.0174,2.0172,2.0171,2.0029,2.0027,2.0025,1.9925,1.9924,1.9924,1.9923,1.9767,1.9763,1.9759,0,0,0,0,0,0,0,0,0,0,0,0,0,2.0249,2.0351,2.0175,2.0104,2.0096,2.003,2.0027,2.0025,1.9926,1.9924,1.9923,1.9922,1.9769,1.9764,1.9758,1.9748,0,0,1.9742,1.974,0,0,0,0,0,0,0,0,2.0255,2.0243,2.0116,2.0109,2.01,1.9994,2.0033,1.9932,1.9926,1.999,1.9923,1.9922,1.9842,1.9831,1.9806,1.9741,1.9734,1.9742,1.9739,1.9737,1.9735,0,0,0,0,0,0,0,2.0263,2.0248,2.0116,2.0114,2.0104,2.0076,2.006,2.0014,1.9924,1.9984,1.9977,1.9961,1.9838,1.9811,1.9802,1.9732,1.9742,1.9737,1.9734,1.9732,1.9647,1.9648,0,0,0,0,0,0,2.0282,2.0255,2.0121,2.0112,2.0177,2.0074,2.0056,2.0029,1.9924,1.9907,1.9963,1.9957,1.9821,1.9808,1.9796,1.9775,1.9737,1.9732,1.9729,1.9646,1.9647,1.9648,0,0,0,0,0,0,2.0287,2.0272,2.0127,2.0182,2.0161,2.0072,2.0043,2.0027,2.0001,1.9908,1.989,1.9953,1.9819,1.9803,1.976,1.9768,1.9729,1.9725,1.9645,1.9646,1.9647,1.9735,0,0,0,0,0,0,2.0292,2.0274,2.0272,2.0182,2.0159,2.0098,2.0043,2.0025,1.9993,1.9985,1.9894,1.9878,1.9817,1.9769,1.9755,1.976,1.972,1.9644,1.9645,1.9647,1.9731,1.9739,1.9746,0,0,0,0,0,2.0299,2.0301,2.0272,2.0256,2.0155,2.0099,2.0085,2.0017,1.9994,1.9989,1.9929,1.9881,1.977,1.9765,1.9749,1.9753,1.9643,1.9645,1.9647,1.9728,1.9738,1.9746,0,0,0,0,0,0,2.0391,2.0288,2.0255,2.0228,2.0173,2.0082,2.0074,2.003,1.9979,1.9973,1.9889,1.9869,1.9834,1.9789,1.9786,1.9735,1.97,1.9699,1.9767,1.9775,1.9783,1.9794,1.9716,0,0,0,0,0,2.0409,2.0375,2.0285,2.027,2.0245,2.0165,2.0137,2.009,2.0029,2.0004,1.9941,1.988,1.9831,1.98,1.975,1.9723,1.97,1.9717,1.9725,1.9731,1.9731,1.9711,1.9716,1.9654,1.9654,1.9654,0,0,2.0444,2.0383,2.0367,2.0287,2.0239,2.0203,2.0145,2.011,2.0081,1.9997,1.9954,1.9905,1.9832,1.9797,1.9778,1.9757,1.9743,1.9734,1.974,1.9736,1.9713,1.9719,1.9724,1.9656,1.9655,1.9655,0,0,2.0489,2.0442,2.0423,2.0376,2.0304,2.025,2.0246,2.016,2.0126,2.0081,2.0017,1.9979,1.9898,1.9847,1.9811,1.9834,1.9787,1.982,1.9859,1.984,1.9845,1.9849,1.9855,1.9859,1.982,1.982,1.982,0,2.0542,2.0488,2.0418,2.0386,2.0352,2.0276,2.0255,2.0211,2.0126,2.0102,2.0081,1.9975,1.992,1.9871,1.9877,1.985,1.984,1.983,1.985,1.9853,1.9856,1.9861,1.9864,1.9825,1.9824,1.9824,1.9823,0,2.0554,2.0517,2.051,2.0432,2.0396,2.037,2.0293,2.0264,2.0219,2.0167,2.012,2.0051,1.9985,1.9969,1.9925,1.9913,1.9902,1.9867,1.983,1.9868,1.9871,1.9873,1.9831,1.9829,1.9828,1.9827,0,0,2.0654,2.0538,2.0536,2.0499,2.0413,2.0382,2.0349,2.0287,2.0263,2.0206,2.0175,2.0106,2.0072,2.0031,1.9979,1.9963,1.9983,1.9928,1.9925,1.994,1.9962,1.999,1.9993,1.9951,1.9951,1.9951,1.9968,0,2.0686,2.0629,2.0564,2.0528,2.0491,2.0418,2.0389,2.0331,2.0281,2.0239,2.0181,2.0133,2.0093,2.0068,2.0048,1.9985,1.9986,1.9983,1.9918,1.9917,1.9939,1.9995,2.0024,2.0044,1.9969,1.9969,1.9969,0,2.0716,2.0665,2.0626,2.0542,2.0523,2.05,2.0436,2.0398,2.0329,2.0293,2.0247,2.0191,2.015,2.0117,2.0057,2.0056,2.0025,1.9989,1.9988,1.998,1.9946,1.9987,2.0049,2.0052,1.9971,1.9971,1.9971,0,2.0792,2.0712,2.0678,2.0648,2.055,2.0534,2.0492,2.0422,2.0388,2.0331,2.0307,2.0245,2.0211,2.0162,2.0089,2.0073,2.0036,1.9998,2.0002,2.0003,1.9997,1.9999,2.0055,1.9979,1.9979,1.9979,1.9978,0,2.0833,2.0812,2.0711,2.069,2.0662,2.0586,2.0559,2.0509,2.0448,2.0413,2.0344,2.0312,2.0219,2.0175,2.0117,2.0075,2.0059,2.0026,2.0011,2.0033,2.0037,2.0011,2.0008,1.9979,1.9979,1.9979,1.9979,0,2.0913,2.0845,2.0803,2.0713,2.069,2.0673,2.0594,2.0569,2.0514,2.047,2.0455,2.0368,2.0311,2.0235,2.0154,2.0115,2.0079,2.0056,2.0104,2.0095,2.0103,2.0103,2.0144,2.0145,2.007,2.0071,2.0072,0,2.0944,2.0926,2.0835,2.0809,2.0769,2.0727,2.0692,2.0615,2.058,2.05,2.0483,2.0423,2.037,2.0283,2.0209,2.0146,2.012,2.0139,2.011,2.0131,2.0119,2.0121,2.0118,2.0146,2.0147,2.0148,2.0149,0,2.1006,2.0973,2.0927,2.0869,2.083,2.078,2.0726,2.0707,2.0617,2.0582,2.0525,2.0485,2.0403,2.0342,2.027,2.0221,2.0169,2.0159,2.0156,2.0177,2.0206,2.0189,2.0123,2.0158,2.0157,2.0156,2.0156,2.0156,2.1061,2.1041,2.0974,2.0924,2.0876,2.0827,2.0799,2.0741,2.0693,2.0623,2.0579,2.0524,2.0452,2.0349,2.0303,2.0256,2.0235,2.0232,2.023,2.0231,2.0237,2.0214,2.0242,2.0242,2.0241,2.0241,2.0241,0,2.1118,2.1071,2.1027,2.0955,2.0915,2.0873,2.081,2.0778,2.0732,2.0671,2.0621,2.0554,2.0495,2.0417,2.035,2.0327,2.0302,2.0312,2.0313,2.0302,2.026,2.0269,2.0334,2.0334,2.0334,2.0334,2.0334,2.0334,2.1143,2.1107,2.1065,2.1003,2.0954,2.0903,2.0871,2.0823,2.0774,2.0704,2.0656,2.0606,2.0537,2.0465,2.0406,2.0384,2.0362,2.0381,2.0351,2.0314,2.0305,2.0297,2.0305,2.0377,2.0377,2.0397,2.0397,2.0397]}]]